Tracking 30923 objects as of 30-Jun-2025
HD Live streaming from Space Station
objects crossing your sky now

PEGASUS R/B

Track PEGASUS R/B now!
10-day predictions


NORAD ID: 39198
Int'l Code: 2013-033B
Perigee: 605.9 km
Apogee: 635.0 km
Inclination: 97.9 °
Period: 97.0 minutes
Semi major axis: 6991 km
RCS: Unknown
Launch date: June 28, 2013
Source: United States (US)
Launch site: Pegasus launched from Western Range Air Space (WRAS)

Note: This is a ROCKET BODY
Your satellite tracking list
Your tracking list is empty




NASA's NSSDC Master Catalog

Two Line Element Set (TLE):
1 39198U 13033B   25181.48813264  .00000655  00000-0  82859-4 0  9995
2 39198  97.9199  15.2232 0020775   2.7554 357.3771 14.85094931648594
Source of the keplerian elements: AFSPC